Time,TemperatureF,DewpointF,PressureIn,WindDirection,WindDirectionDegrees,WindSpeedMPH,WindSpeedGustMPH,Humidity,HourlyPrecipIn,Conditions,Clouds,dailyrainin,SoftwareType,DateUTC
2013-04-01 00:02:00,48.0,29.0,28.37,SSE,151,0.0,0.0,48,0.00,,,0.04,,2013-04-01 05:02:00,
2013-04-01 00:12:00,48.0,29.0,28.37,SSE,151,0.0,0.0,48,0.00,,,0.04,,2013-04-01 05:12:00,
2013-04-01 00:22:00,49.0,32.0,28.37,North,5,7.0,7.0,51,0.00,,,0.04,,2013-04-01 05:22:00,
2013-04-01 00:32:00,50.0,32.0,28.40,North,8,3.0,3.0,49,0.00,,,0.04,,2013-04-01 05:32:00,
2013-04-01 00:42:00,50.0,32.0,28.40,North,8,3.0,3.0,49,0.00,,,0.04,,2013-04-01 05:42:00,
2013-04-01 00:53:00,50.0,32.0,28.40,North,8,3.0,3.0,49,0.00,,,0.04,,2013-04-01 05:53:00,
2013-04-01 01:02:00,51.0,31.0,28.43,North,353,3.0,3.0,46,0.00,,,0.04,,2013-04-01 06:02:00,
2013-04-01 01:12:00,51.0,31.0,28.43,North,353,3.0,3.0,46,0.00,,,0.04,,2013-04-01 06:12:00,
2013-04-01 01:22:00,51.0,30.0,28.43,NNE,30,3.0,5.0,45,0.00,,,0.00,,2013-04-01 06:22:00,
2013-04-01 01:33:00,51.0,30.0,28.46,North,353,9.0,9.0,44,0.00,,,0.00,,2013-04-01 06:33:00,
2013-04-01 01:42:00,51.0,30.0,28.46,North,353,9.0,9.0,44,0.00,,,0.00,,2013-04-01 06:42:00,
2013-04-01 01:52:00,51.0,29.0,28.46,NNE,14,7.0,9.0,43,0.00,,,0.00,,2013-04-01 06:52:00,
2013-04-01 02:02:00,50.0,27.0,28.46,NNE,29,7.0,11.0,40,0.00,,,0.00,,2013-04-01 07:02:00,
2013-04-01 02:12:00,50.0,27.0,28.46,NNE,29,7.0,11.0,40,0.00,,,0.00,,2013-04-01 07:12:00,
2013-04-01 02:22:00,48.0,25.0,28.49,NNW,345,7.0,8.0,40,0.00,,,0.00,,2013-04-01 07:22:00,
2013-04-01 02:32:00,48.0,25.0,28.49,NNW,345,7.0,8.0,40,0.00,,,0.00,,2013-04-01 07:32:00,
2013-04-01 02:42:00,48.0,25.0,28.49,NNW,345,7.0,8.0,40,0.00,,,0.00,,2013-04-01 07:42:00,
2013-04-01 02:53:00,45.0,27.0,28.52,North,8,10.0,10.0,48,0.00,,,0.00,,2013-04-01 07:53:00,
2013-04-01 03:02:00,44.0,27.0,28.52,NNE,16,10.0,16.0,50,0.00,,,0.00,,2013-04-01 08:02:00,
2013-04-01 03:12:00,44.0,27.0,28.52,NNE,16,10.0,16.0,50,0.00,,,0.00,,2013-04-01 08:12:00,
2013-04-01 03:22:00,42.0,27.0,28.52,North,5,10.0,10.0,54,0.00,,,0.00,,2013-04-01 08:22:00,
2013-04-01 03:32:00,42.0,27.0,28.52,North,5,10.0,10.0,54,0.00,,,0.00,,2013-04-01 08:32:00,
2013-04-01 03:43:00,42.0,27.0,28.52,North,5,10.0,10.0,54,0.00,,,0.00,,2013-04-01 08:43:00,
2013-04-01 03:53:00,42.0,29.0,28.55,NNW,343,5.0,7.0,60,0.00,,,0.00,,2013-04-01 08:53:00,
2013-04-01 04:02:00,42.0,30.0,28.58,NNW,338,9.0,9.0,62,0.00,,,0.00,,2013-04-01 09:02:00,
2013-04-01 04:12:00,42.0,30.0,28.58,NNW,338,9.0,9.0,62,0.00,,,0.00,,2013-04-01 09:12:00,
2013-04-01 04:22:00,41.0,31.0,28.58,North,349,3.0,7.0,66,0.00,,,0.00,,2013-04-01 09:22:00,
2013-04-01 04:33:00,41.0,31.0,28.58,NNE,14,7.0,9.0,68,0.00,,,0.00,,2013-04-01 09:33:00,
2013-04-01 04:42:00,41.0,31.0,28.58,NNE,14,7.0,9.0,68,0.00,,,0.00,,2013-04-01 09:42:00,
2013-04-01 04:53:00,41.0,32.0,28.58,NE,36,5.0,7.0,69,0.00,,,0.00,,2013-04-01 09:53:00,
2013-04-01 05:03:00,41.0,32.0,28.58,NNW,332,5.0,9.0,70,0.00,,,0.00,,2013-04-01 10:03:00,
2013-04-01 05:12:00,41.0,32.0,28.58,NNW,332,5.0,9.0,70,0.00,,,0.00,,2013-04-01 10:12:00,
2013-04-01 05:23:00,39.0,29.0,28.61,North,0,7.0,7.0,68,0.00,,,0.00,,2013-04-01 10:23:00,
2013-04-01 05:33:00,39.0,30.0,28.61,North,353,7.0,7.0,69,0.00,,,0.00,,2013-04-01 10:33:00,
2013-04-01 05:42:00,39.0,30.0,28.61,North,353,7.0,7.0,69,0.00,,,0.00,,2013-04-01 10:42:00,
2013-04-01 05:53:00,38.0,29.0,28.61,North,353,4.0,5.0,70,0.00,,,0.00,,2013-04-01 10:53:00,
2013-04-01 06:03:00,38.0,29.0,28.64,North,0,7.0,7.0,70,0.00,,,0.00,,2013-04-01 11:03:00,
2013-04-01 06:12:00,38.0,29.0,28.64,North,0,7.0,7.0,70,0.00,,,0.00,,2013-04-01 11:12:00,
2013-04-01 06:23:00,37.0,28.0,28.64,NNW,334,7.0,7.0,70,0.00,,,0.00,,2013-04-01 11:23:00,
2013-04-01 06:32:00,37.0,28.0,28.64,NNW,343,8.0,8.0,71,0.00,,,0.00,,2013-04-01 11:32:00,
2013-04-01 06:42:00,37.0,28.0,28.64,NNW,343,8.0,8.0,71,0.00,,,0.00,,2013-04-01 11:42:00,
2013-04-01 06:53:00,37.0,28.0,28.64,NNW,335,5.0,5.0,71,0.00,,,0.00,,2013-04-01 11:53:00,
2013-04-01 07:02:00,37.0,28.0,28.64,NE,38,5.0,5.0,71,0.00,,,0.00,,2013-04-01 12:02:00,
2013-04-01 07:12:00,37.0,28.0,28.64,NE,38,5.0,5.0,71,0.00,,,0.00,,2013-04-01 12:12:00,
2013-04-01 07:22:00,35.0,26.0,28.67,North,6,5.0,7.0,69,0.00,,,0.00,,2013-04-01 12:22:00,
2013-04-01 07:32:00,35.0,26.0,28.67,North,6,5.0,7.0,69,0.00,,,0.00,,2013-04-01 12:32:00,
2013-04-01 07:42:00,35.0,26.0,28.67,North,6,5.0,7.0,69,0.00,,,0.00,,2013-04-01 12:42:00,
2013-04-01 07:53:00,33.0,21.0,28.70,NNW,346,5.0,7.0,62,0.00,,,0.00,,2013-04-01 12:53:00,
2013-04-01 08:02:00,33.0,21.0,28.70,North,353,5.0,5.0,62,0.00,,,0.00,,2013-04-01 13:02:00,
2013-04-01 08:12:00,33.0,21.0,28.70,North,353,5.0,5.0,62,0.00,,,0.00,,2013-04-01 13:12:00,
2013-04-01 08:22:00,33.0,21.0,28.70,NNW,343,3.0,3.0,62,0.00,,,0.00,,2013-04-01 13:22:00,
2013-04-01 08:32:00,33.0,20.0,28.70,North,1,3.0,3.0,59,0.00,,,0.00,,2013-04-01 13:32:00,
2013-04-01 08:42:00,33.0,20.0,28.70,North,1,3.0,3.0,59,0.00,,,0.00,,2013-04-01 13:42:00,
2013-04-01 08:52:00,33.0,18.0,28.70,NNE,29,7.0,7.0,54,0.00,,,0.00,,2013-04-01 13:52:00,
2013-04-01 09:03:00,33.0,18.0,28.70,NNW,343,5.0,7.0,53,0.00,,,0.00,,2013-04-01 14:03:00,
2013-04-01 09:12:00,33.0,18.0,28.70,NNW,343,5.0,7.0,53,0.00,,,0.00,,2013-04-01 14:12:00,
2013-04-01 09:22:00,35.0,18.0,28.73,North,357,5.0,5.0,50,0.00,,,0.00,,2013-04-01 14:22:00,
2013-04-01 09:32:00,35.0,16.0,28.73,NNW,343,8.0,12.0,46,0.00,,,0.00,,2013-04-01 14:32:00,
2013-04-01 09:42:00,35.0,16.0,28.73,NNW,343,8.0,12.0,46,0.00,,,0.00,,2013-04-01 14:42:00,
2013-04-01 09:53:00,35.0,15.0,28.73,NNW,330,7.0,7.0,44,0.00,,,0.00,,2013-04-01 14:53:00,
2013-04-01 10:02:00,37.0,18.0,28.73,North,353,5.0,8.0,46,0.00,,,0.00,,2013-04-01 15:02:00,
2013-04-01 10:13:00,37.0,18.0,28.73,North,353,5.0,8.0,46,0.00,,,0.00,,2013-04-01 15:13:00,
2013-04-01 10:22:00,39.0,17.0,28.73,NW,318,5.0,9.0,41,0.00,,,0.00,,2013-04-01 15:22:00,
2013-04-01 10:34:00,39.0,17.0,28.73,North,353,7.0,7.0,40,0.00,,,0.00,,2013-04-01 15:34:00,
2013-04-01 10:43:00,39.0,17.0,28.73,North,353,7.0,7.0,40,0.00,,,0.00,,2013-04-01 15:43:00,
2013-04-01 10:53:00,39.0,16.0,28.73,North,353,3.0,7.0,39,0.00,,,0.00,,2013-04-01 15:53:00,
2013-04-01 11:02:00,39.0,16.0,28.73,NNE,12,3.0,8.0,39,0.00,,,0.00,,2013-04-01 16:02:00,
2013-04-01 11:13:00,39.0,16.0,28.73,NNE,12,3.0,8.0,39,0.00,,,0.00,,2013-04-01 16:13:00,
2013-04-01 11:23:00,40.0,17.0,28.73,NW,308,3.0,5.0,39,0.00,,,0.00,,2013-04-01 16:23:00,
2013-04-01 11:33:00,40.0,17.0,28.73,NNE,14,5.0,9.0,39,0.00,,,0.00,,2013-04-01 16:33:00,
2013-04-01 11:42:00,40.0,17.0,28.73,NNE,14,5.0,9.0,39,0.00,,,0.00,,2013-04-01 16:42:00,
2013-04-01 11:53:00,40.0,17.0,28.73,North,353,10.0,10.0,39,0.00,,,0.00,,2013-04-01 16:53:00,
2013-04-01 12:03:00,39.0,16.0,28.73,NNW,348,7.0,7.0,39,0.00,,,0.00,,2013-04-01 17:03:00,
2013-04-01 12:12:00,39.0,16.0,28.73,NNW,348,7.0,7.0,39,0.00,,,0.00,,2013-04-01 17:12:00,
2013-04-01 12:22:00,40.0,17.0,28.73,North,353,5.0,5.0,39,0.00,,,0.00,,2013-04-01 17:22:00,
2013-04-01 12:32:00,40.0,17.0,28.73,North,353,5.0,5.0,39,0.00,,,0.00,,2013-04-01 17:32:00,
2013-04-01 12:42:00,40.0,17.0,28.73,North,353,5.0,5.0,39,0.00,,,0.00,,2013-04-01 17:42:00,
2013-04-01 12:53:00,41.0,17.0,28.76,West,279,3.0,5.0,37,0.00,,,0.00,,2013-04-01 17:53:00,
2013-04-01 13:02:00,43.0,18.0,28.76,NW,312,3.0,4.0,36,0.00,,,0.00,,2013-04-01 18:02:00,
2013-04-01 13:12:00,43.0,18.0,28.76,NW,312,3.0,4.0,36,0.00,,,0.00,,2013-04-01 18:12:00,
2013-04-01 13:22:00,43.0,17.0,28.76,North,3,8.0,8.0,34,0.00,,,0.00,,2013-04-01 18:22:00,
2013-04-01 13:32:00,44.0,17.0,28.76,North,0,4.0,8.0,33,0.00,,,0.00,,2013-04-01 18:32:00,
2013-04-01 13:42:00,44.0,17.0,28.76,North,0,4.0,8.0,33,0.00,,,0.00,,2013-04-01 18:42:00,
2013-04-01 13:53:00,44.0,17.0,28.73,NE,34,7.0,7.0,33,0.00,,,0.00,,2013-04-01 18:53:00,
2013-04-01 14:03:00,45.0,17.0,28.73,NNE,28,4.0,7.0,32,0.00,,,0.00,,2013-04-01 19:03:00,
2013-04-01 14:12:00,45.0,17.0,28.73,NNE,28,4.0,7.0,32,0.00,,,0.00,,2013-04-01 19:12:00,
2013-04-01 14:23:00,45.0,17.0,28.73,NNW,343,7.0,7.0,32,0.00,,,0.00,,2013-04-01 19:23:00,
2013-04-01 14:32:00,45.0,17.0,28.70,North,353,5.0,7.0,32,0.00,,,0.00,,2013-04-01 19:32:00,
2013-04-01 14:42:00,45.0,17.0,28.70,North,353,5.0,7.0,32,0.00,,,0.00,,2013-04-01 19:42:00,
2013-04-01 14:53:00,45.0,17.0,28.70,North,357,5.0,5.0,32,0.00,,,0.00,,2013-04-01 19:53:00,
2013-04-01 15:02:00,46.0,17.0,28.70,NNW,348,3.0,6.0,31,0.00,,,0.00,,2013-04-01 20:02:00,
2013-04-01 15:12:00,46.0,17.0,28.70,NNW,348,3.0,6.0,31,0.00,,,0.00,,2013-04-01 20:12:00,
2013-04-01 15:22:00,47.0,18.0,28.70,North,357,7.0,7.0,31,0.00,,,0.00,,2013-04-01 20:22:00,
2013-04-01 15:32:00,47.0,17.0,28.70,North,353,3.0,3.0,30,0.00,,,0.00,,2013-04-01 20:32:00,
2013-04-01 15:42:00,47.0,17.0,28.70,North,353,3.0,3.0,30,0.00,,,0.00,,2013-04-01 20:42:00,
2013-04-01 15:52:00,47.0,17.0,28.67,North,0,5.0,7.0,30,0.00,,,0.00,,2013-04-01 20:52:00,
2013-04-01 16:02:00,47.0,17.0,28.67,North,353,3.0,3.0,30,0.00,,,0.00,,2013-04-01 21:02:00,
2013-04-01 16:12:00,47.0,17.0,28.67,North,353,3.0,3.0,30,0.00,,,0.00,,2013-04-01 21:12:00,
2013-04-01 16:22:00,47.0,17.0,28.67,North,353,3.0,5.0,30,0.00,,,0.00,,2013-04-01 21:22:00,
2013-04-01 16:32:00,47.0,17.0,28.67,North,353,3.0,5.0,30,0.00,,,0.00,,2013-04-01 21:32:00,
2013-04-01 16:43:00,47.0,17.0,28.67,North,353,3.0,5.0,30,0.00,,,0.00,,2013-04-01 21:43:00,
2013-04-01 16:53:00,47.0,17.0,28.67,North,0,5.0,5.0,30,0.00,,,0.00,,2013-04-01 21:53:00,
2013-04-01 17:02:00,47.0,17.0,28.67,NE,47,3.0,7.0,30,0.00,,,0.00,,2013-04-01 22:02:00,
2013-04-01 17:12:00,47.0,17.0,28.67,NE,47,3.0,7.0,30,0.00,,,0.00,,2013-04-01 22:12:00,
2013-04-01 17:22:00,46.0,16.0,28.67,North,357,5.0,5.0,30,0.00,,,0.00,,2013-04-01 22:22:00,
2013-04-01 17:33:00,46.0,17.0,28.67,ENE,68,5.0,7.0,31,0.00,,,0.00,,2013-04-01 22:33:00,
2013-04-01 17:43:00,46.0,17.0,28.67,ENE,68,5.0,7.0,31,0.00,,,0.00,,2013-04-01 22:43:00,
2013-04-01 17:52:00,46.0,17.0,28.64,North,2,5.0,5.0,31,0.00,,,0.00,,2013-04-01 22:52:00,
2013-04-01 18:02:00,46.0,17.0,28.64,North,3,5.0,7.0,31,0.00,,,0.00,,2013-04-01 23:02:00,
2013-04-01 18:12:00,46.0,17.0,28.64,North,3,5.0,7.0,31,0.00,,,0.00,,2013-04-01 23:12:00,
2013-04-01 18:22:00,46.0,17.0,28.64,NNE,20,3.0,3.0,31,0.00,,,0.00,,2013-04-01 23:22:00,
2013-04-01 18:32:00,46.0,17.0,28.64,NNE,26,6.0,6.0,31,0.00,,,0.00,,2013-04-01 23:32:00,
2013-04-01 18:42:00,46.0,17.0,28.64,NNE,26,6.0,6.0,31,0.00,,,0.00,,2013-04-01 23:42:00,
2013-04-01 18:53:00,45.0,16.0,28.64,North,0,4.0,5.0,31,0.00,,,0.00,,2013-04-01 23:53:00,
2013-04-01 19:02:00,45.0,16.0,28.64,NNW,346,5.0,5.0,31,0.00,,,0.00,,2013-04-02 00:02:00,
2013-04-01 19:12:00,45.0,16.0,28.64,NNW,346,5.0,5.0,31,0.00,,,0.00,,2013-04-02 00:12:00,
2013-04-01 19:22:00,45.0,16.0,28.64,NNE,18,3.0,3.0,31,0.00,,,0.00,,2013-04-02 00:22:00,
2013-04-01 19:32:00,45.0,16.0,28.64,North,357,3.0,5.0,31,0.00,,,0.00,,2013-04-02 00:32:00,
2013-04-01 19:42:00,45.0,16.0,28.64,North,357,3.0,5.0,31,0.00,,,0.00,,2013-04-02 00:42:00,
2013-04-01 19:53:00,44.0,15.0,28.64,NNE,13,2.0,3.0,31,0.00,,,0.00,,2013-04-02 00:53:00,
2013-04-01 20:02:00,44.0,15.0,28.64,NNE,13,2.0,3.0,31,0.00,,,0.00,,2013-04-02 01:02:00,
2013-04-01 20:12:00,44.0,15.0,28.64,NNE,13,2.0,3.0,31,0.00,,,0.00,,2013-04-02 01:12:00,
2013-04-01 20:22:00,44.0,16.0,28.64,North,3,3.0,3.0,32,0.00,,,0.00,,2013-04-02 01:22:00,
2013-04-01 20:32:00,44.0,16.0,28.64,North,3,3.0,3.0,32,0.00,,,0.00,,2013-04-02 01:32:00,
2013-04-01 20:43:00,44.0,16.0,28.64,North,3,3.0,3.0,32,0.00,,,0.00,,2013-04-02 01:43:00,
2013-04-01 20:53:00,42.0,15.0,28.67,NNE,25,2.0,5.0,33,0.00,,,0.00,,2013-04-02 01:53:00,
2013-04-01 21:02:00,42.0,16.0,28.67,North,357,3.0,3.0,34,0.00,,,0.00,,2013-04-02 02:02:00,
2013-04-01 21:12:00,42.0,16.0,28.67,North,357,3.0,3.0,34,0.00,,,0.00,,2013-04-02 02:12:00,
2013-04-01 21:22:00,42.0,16.0,28.67,North,3,3.0,3.0,34,0.00,,,0.00,,2013-04-02 02:22:00,
2013-04-01 21:32:00,41.0,15.0,28.67,North,8,5.0,5.0,34,0.00,,,0.00,,2013-04-02 02:32:00,
2013-04-01 21:42:00,41.0,15.0,28.67,North,8,5.0,5.0,34,0.00,,,0.00,,2013-04-02 02:42:00,
2013-04-01 21:53:00,41.0,15.0,28.70,North,8,2.0,3.0,35,0.00,,,0.00,,2013-04-02 02:53:00,
2013-04-01 22:02:00,40.0,15.0,28.70,North,357,5.0,5.0,35,0.00,,,0.00,,2013-04-02 03:02:00,
2013-04-01 22:12:00,40.0,15.0,28.70,North,357,5.0,5.0,35,0.00,,,0.00,,2013-04-02 03:12:00,
2013-04-01 22:22:00,40.0,16.0,28.70,North,9,5.0,5.0,37,0.00,,,0.00,,2013-04-02 03:22:00,
2013-04-01 22:33:00,39.0,15.0,28.70,North,5,3.0,5.0,37,0.00,,,0.00,,2013-04-02 03:33:00,
2013-04-01 22:43:00,39.0,15.0,28.70,North,5,3.0,5.0,37,0.00,,,0.00,,2013-04-02 03:43:00,
2013-04-01 22:53:00,38.0,15.0,28.70,North,10,3.0,3.0,39,0.00,,,0.00,,2013-04-02 03:53:00,
2013-04-01 23:03:00,38.0,15.0,28.70,North,9,3.0,4.0,39,0.00,,,0.00,,2013-04-02 04:03:00,
2013-04-01 23:13:00,38.0,15.0,28.70,North,9,3.0,4.0,39,0.00,,,0.00,,2013-04-02 04:13:00,
2013-04-01 23:22:00,38.0,15.0,28.70,North,9,3.0,4.0,39,0.00,,,0.00,,2013-04-02 04:22:00,
2013-04-01 23:32:00,37.0,15.0,28.70,NNE,18,3.0,3.0,40,0.00,,,0.00,,2013-04-02 04:32:00,
2013-04-01 23:43:00,37.0,15.0,28.70,NNE,18,3.0,3.0,40,0.00,,,0.00,,2013-04-02 04:43:00,
2013-04-01 23:53:00,37.0,15.0,28.70,NNE,18,3.0,5.0,40,0.00,,,0.00,,2013-04-02 04:53:00,